CZ-6A DEB

Satellite information

Favourite Embed

Satellite Type and Status

DEBRISIN ORBIT

Key statistics

Satellite CZ-6A DEB at a glance.

Uptime

1129

Days in orbit

Revolutions

≈ 14.6

Per day

Orbit

SSO

Sun Synchronous Orbit

Inclination

98.8

Latest

Satellite identification and parameters

Extended collection of information and parameters for CZ-6A DEB.

Object identification

Identified? True

Debris? True

Object name: CZ-6A DEB

International designator: 2022-151ABH

Object number (NORAD): 56241

Object ID (CCSDS): 56241

Country: PEOPLES REPUBLIC OF CHINA (PRC)

Current information (Y/N): Y

RCS size: SMALL

Orbital parameters

Period: 98.669 minutes

Inclination: 98.8341 deg

SMA: 7073.188 km

Apoapsis: 757.757 km

Periapsis: 632.35 km

RAAN: 60.8128 deg

Eccentricy: 0.00886497

Argument of periapsis: 175.4844 deg

Mean anomaly: 184.7174 deg

Mean motion: 14.59418789 rev/day

Mean motion (dot): 0.00017985 rev/day2

B* drag term: 0.0035957762 1/REarth

Two-line elements (TLE)

Creation date: Dec. 11, 2025, 10:54 a.m.

Reference frame: TEME

Reference center: EARTH

Epoch: Dec. 11, 2025, 4:07 a.m. UTC

TLE line 0: 0 CZ-6A DEB

TLE line 1: 1 56241U 22151ABH 25345.17158394 .00017985 00000-0 35958-2 0 9998

TLE line 2: 2 56241 98.8341 60.8128 0088650 175.4844 184.7174 14.59418789150754

Live tracking on map

Real-time ground track for satellite CZ-6A DEB.

In-orbit conjunctions

A list of the most updated potential collisions computed for object CZ-6A DEB.

Target Orbit TCA Probability of collision Miss distance Type
COSMOS 968 LEO 2025-03-01 13:13:23 0.0001150074 676.0 (m) PAYLOAD
CZ-6A DEB LEO 2025-02-12 02:59:56 0.000248789 124.0 (m) DEBRIS
RUBIN 2 LEO 2024-11-04 06:28:23 0.0001508996 765.0 (m) PAYLOAD
COSMOS 1867 COOLANT LEO 2024-09-24 11:00:03 0.00029951 145.0 (m) DEBRIS

Associated space launch

Chinese satellite reported for atmospheric/ocean/environmental/spatial parameter research purposes, details TBD.

CZ-6A DEB was lifted into orbit during the mission ‘Long March 6A | Yunhai 3’, on board a Long March 6A space rocket.

The launch took place on Nov. 11, 2022, 10:52 p.m. from Launch Complex 9A.

For more information about the launch, click the button.

Launch to space Long March 6A | Yunhai 3
Long March 6A | Yunhai 3

Agency: N/A

Status: Launch Successful

Launch date: Nov. 11, 2022, 10:52 p.m. UTC

Rocket: Long March 6A

Launch pad: Launch Complex 9A

Location: Taiyuan Satellite Launch Center, People's Republic of China

...

Latest news about this satellite

There are no fresh news available about this satellite. Check back as we update our databases every day.


Newsletter sign-up

Weekly statistics, charts and insights to help you stay on top of the space industry.